Location: Flynn Junction
(40.1314°N, 99.5162°W)
Time: 21:27:20
(UTC+00:00)

deb Chang Zheng 4 - Pass Details

Date: 29 October 2020
Orbit: 602 x 624 km, 98.6° (Epoch: 01 December)

Event Time Altitude Azimuth Distance (km) Brightness Sun altitude
Rises 12:00:26 0° 3° (N) 2,865 6.9 -12.8°
Reaches altitude 10° 12:02:46 10° 354° (N) 1,959 6.0 -12.4°
Maximum altitude 12:06:34 33° 290° (WNW) 1,026 4.2 -11.6°
Drops below altitude 10° 12:10:23 10° 226° (SW) 1,957 5.8 -10.9°
Sets 12:12:42 0° 217° (SW) 2,861 6.7 -10.5°
